sat.trackr.live / text

‹ back to catalog

QIANFAN-11

NORAD 60389 · 2024-140L

PAYLOAD ACTIVE UNKNOWN

§ Identity

Operator
Country
PRC
Launch date
2024-08-06
Launch site
TAISC
Launch vehicle
Mass (kg)
RCS (m²)

External: N2YO · Heavens-Above · Gunter

§ Orbital elements

Epoch: 2026-09-22T19:56:49.729632Z

Period
106.59 min
Inclination
88.9605°
Eccentricity
0.0016445
Mean motion
13.51021165 rev/d
Perigee alt
1,056.3 km
Apogee alt
1,080.7 km
Semi-major
7,446.6 km
B*
3.0855e-5
RAAN
269.6028°
Arg perigee
96.1253°
Mean anomaly
264.1773°
Rev number
10,547

§ Raw data

QIANFAN-111 60389U 24140L   26265.83113113  .00000032  00000+0  30855-4 0  99982 60389  88.9605 269.6028 0016445  96.1253 264.1773 13.51021165105475

JSON: /api/v1/satellites/60389 · /tle

For live sub-satellite position, see the globe view (requires WebGL).

§ Visibility from observer

Set your observer location to see the next 7 days of passes ≥ 10°. The values pass through the URL so the page stays shareable.

No JS? Fill the form by hand. The geolocation button needs JavaScript.